Истиклол

Таджикистан     40°33′56″N   69°38′30″E
темп.,
°C
ветер,
м/с
пор.,
м/с
влажн.,
%
обл.,
%
осадки,
мм/ч
давл.,
гПа
погр.,
м
12 августа, пт
пт1223:00+21ссз33270 0.0 101139
02:00+20сз44291 0.0 101059
05:00+19ссз33300 0.0 101133
08:00+23з22240 0.0 1011445
11:00+27юз32210 0.0 10101281
14:00+30з64190 0.0 10081623
17:00+29сз65180 0.0 10071556
20:00+25ссз44210 0.0 100840
13 августа, сб
сб1323:00+23ссз32210 0.0 100714
02:00+22ссз33210 0.0 100722
05:00+21ссз33240 0.0 100818
08:00+25ююз11210 0.0 1009326
11:00+29ю33190 0.0 10081237
14:00+32зюз43160 0.0 10061907
17:00+31зсз54170 0.0 10041604
20:00+27сз33210 0.0 100531
14 августа, вс
вс1423:00+25ссз33210 0.0 100416
02:00+24ссз33220 0.0 100415
05:00+23ссз22240 0.0 100518
08:00+27ююз21190 0.0 1006296
11:00+31юз32170 0.0 10051182
14:00+33зсз54160 0.0 10041642
17:00+33сз65140 0.0 10031739
20:00+28ссз56170 0.0 100477
15 августа, пн
пн1523:00+26ссз44190 0.0 100435
02:00+25ссз44190 0.0 100338
05:00+24ссз33210 0.0 100420
08:00+29зсз23160 0.0 1004412
11:00+33зсз54130 0.0 10031624
14:00+35сз65130 0.0 10021963
17:00+34сз78130 0.0 10022780
20:00+28ссз56180 0.0 1004104
16 августа, вт
вт1623:00+27с33200 0.0 100429
02:00+26сз43200 0.0 100433
05:00+24сз44210 0.0 100534
08:00+28зсз46190 0.0 1006480
11:00+31з67160 0.0 10061326
14:00+33зсз89150 0.0 10052070
17:00+32сз910140 0.0 10042465
20:00+27сз712170 0.0 1006350